Year,Month,Day,Hour,Minute,Value (Times are PST for temperature in C)
2011,04,22,00,00,6.30
2011,04,22,00,01,6.30
2011,04,22,00,02,6.30
2011,04,22,00,03,6.30
2011,04,22,00,04,6.30
2011,04,22,00,05,6.30
2011,04,22,00,06,6.30
2011,04,22,00,07,6.30
2011,04,22,00,08,6.30
2011,04,22,00,09,6.30
2011,04,22,00,10,6.30
2011,04,22,00,11,6.30
2011,04,22,00,12,6.30
2011,04,22,00,13,6.30
2011,04,22,00,14,6.30
2011,04,22,00,15,6.30
2011,04,22,00,16,6.30
2011,04,22,00,17,6.20
2011,04,22,00,18,6.20
2011,04,22,00,19,6.20
2011,04,22,00,20,6.20
2011,04,22,00,21,6.20
2011,04,22,00,22,6.20
2011,04,22,00,23,6.20
2011,04,22,00,24,6.20
2011,04,22,00,25,6.20
2011,04,22,00,26,6.10
2011,04,22,00,27,6.10
2011,04,22,00,28,6.00
2011,04,22,00,29,6.00
2011,04,22,00,30,5.90
2011,04,22,00,31,5.90
2011,04,22,00,32,5.90
2011,04,22,00,33,5.80
2011,04,22,00,34,5.70
2011,04,22,00,35,5.70
2011,04,22,00,36,5.60
2011,04,22,00,37,5.60
2011,04,22,00,38,5.50
2011,04,22,00,39,5.50
2011,04,22,00,40,5.50
2011,04,22,00,41,5.40
2011,04,22,00,42,5.40
2011,04,22,00,43,5.40
2011,04,22,00,44,5.40
2011,04,22,00,45,5.30
2011,04,22,00,46,5.30
2011,04,22,00,47,5.30
2011,04,22,00,48,5.30
2011,04,22,00,49,5.20
2011,04,22,00,50,5.20
2011,04,22,00,51,5.10
2011,04,22,00,52,5.10
2011,04,22,00,53,5.00
2011,04,22,00,54,5.00
2011,04,22,00,55,4.90
2011,04,22,00,56,4.90
2011,04,22,00,57,4.80
2011,04,22,00,58,4.80
2011,04,22,00,59,4.70
2011,04,22,01,00,4.70
2011,04,22,01,01,4.60
2011,04,22,01,02,4.60
2011,04,22,01,03,4.50
2011,04,22,01,04,4.40
2011,04,22,01,05,4.40
2011,04,22,01,06,4.30
2011,04,22,01,07,4.30
2011,04,22,01,08,4.20
2011,04,22,01,09,4.20
2011,04,22,01,10,4.10
2011,04,22,01,11,4.10
2011,04,22,01,12,4.10
2011,04,22,01,13,4.10
2011,04,22,01,14,4.10
2011,04,22,01,15,4.10
2011,04,22,01,16,4.10
2011,04,22,01,17,4.10
2011,04,22,01,18,4.10
2011,04,22,01,19,4.10
2011,04,22,01,20,4.10
2011,04,22,01,21,4.10
2011,04,22,01,22,4.10
2011,04,22,01,23,4.10
2011,04,22,01,24,4.10
2011,04,22,01,25,4.10
2011,04,22,01,26,4.10
2011,04,22,01,27,4.10
2011,04,22,01,28,4.10
2011,04,22,01,29,4.10
2011,04,22,01,30,4.10
2011,04,22,01,31,4.10
2011,04,22,01,32,4.20
2011,04,22,01,33,4.20
2011,04,22,01,34,4.20
2011,04,22,01,35,4.20
2011,04,22,01,36,4.20
2011,04,22,01,37,4.20
2011,04,22,01,38,4.20
2011,04,22,01,39,4.20
2011,04,22,01,40,4.20
2011,04,22,01,41,4.20
2011,04,22,01,42,4.20
2011,04,22,01,43,4.20
2011,04,22,01,44,4.20
2011,04,22,01,45,4.20
2011,04,22,01,46,4.20
2011,04,22,01,47,4.20
2011,04,22,01,48,4.20
2011,04,22,01,49,4.20
2011,04,22,01,50,4.10
2011,04,22,01,51,4.10
2011,04,22,01,52,4.10
2011,04,22,01,53,4.10
2011,04,22,01,54,4.10
2011,04,22,01,55,4.10
2011,04,22,01,56,4.10
2011,04,22,01,57,4.10
2011,04,22,01,58,4.10
2011,04,22,01,59,4.00
2011,04,22,02,00,4.00
2011,04,22,02,01,4.00
2011,04,22,02,02,3.90
2011,04,22,02,03,3.90
2011,04,22,02,04,3.90
2011,04,22,02,05,3.90
2011,04,22,02,06,3.90
2011,04,22,02,07,3.80
2011,04,22,02,08,3.80
2011,04,22,02,09,3.80
2011,04,22,02,10,3.80
2011,04,22,02,11,3.80
2011,04,22,02,12,3.80
2011,04,22,02,13,3.70
2011,04,22,02,14,3.70
2011,04,22,02,15,3.70
2011,04,22,02,16,3.70
2011,04,22,02,17,3.70
2011,04,22,02,18,3.70
2011,04,22,02,19,3.70
2011,04,22,02,20,3.70
2011,04,22,02,21,3.70
2011,04,22,02,22,3.70
2011,04,22,02,23,3.70
2011,04,22,02,24,3.70
2011,04,22,02,25,3.70
2011,04,22,02,26,3.70
2011,04,22,02,27,3.70
2011,04,22,02,28,3.70
2011,04,22,02,29,3.70
2011,04,22,02,30,3.70
2011,04,22,02,31,3.60
2011,04,22,02,32,3.60
2011,04,22,02,33,3.60
2011,04,22,02,34,3.50
2011,04,22,02,35,3.50
2011,04,22,02,36,3.40
2011,04,22,02,37,3.40
2011,04,22,02,38,3.30
2011,04,22,02,39,3.30
2011,04,22,02,40,3.30
2011,04,22,02,41,3.20
2011,04,22,02,42,3.20
2011,04,22,02,43,3.20
2011,04,22,02,44,3.20
2011,04,22,02,45,3.20
2011,04,22,02,46,3.20
2011,04,22,02,47,3.10
2011,04,22,02,48,3.10
2011,04,22,02,49,3.00
2011,04,22,02,50,3.00
2011,04,22,02,51,2.90
2011,04,22,02,52,2.90
2011,04,22,02,53,2.90
2011,04,22,02,54,2.80
2011,04,22,02,55,2.80
2011,04,22,02,56,2.80
2011,04,22,02,57,2.80
2011,04,22,02,58,2.70
2011,04,22,02,59,2.70
2011,04,22,03,00,2.60
2011,04,22,03,01,2.60
2011,04,22,03,02,2.60
2011,04,22,03,03,2.60
2011,04,22,03,04,2.50
2011,04,22,03,05,2.50
2011,04,22,03,06,2.50
2011,04,22,03,07,2.50
2011,04,22,03,08,2.40
2011,04,22,03,09,2.40
2011,04,22,03,10,2.40
2011,04,22,03,11,2.40
2011,04,22,03,12,2.30
2011,04,22,03,13,2.30
2011,04,22,03,14,2.30
2011,04,22,03,15,2.30
2011,04,22,03,16,2.30
2011,04,22,03,17,2.30
2011,04,22,03,18,2.20
2011,04,22,03,19,2.20
2011,04,22,03,20,2.20
2011,04,22,03,21,2.20
2011,04,22,03,22,2.20
2011,04,22,03,23,2.20
2011,04,22,03,24,2.10
2011,04,22,03,25,2.10
2011,04,22,03,26,2.10
2011,04,22,03,27,2.00
2011,04,22,03,28,2.00
2011,04,22,03,29,2.00
2011,04,22,03,30,1.90
2011,04,22,03,31,1.90
2011,04,22,03,32,1.90
2011,04,22,03,33,1.90
2011,04,22,03,34,1.80
2011,04,22,03,35,1.80
2011,04,22,03,36,1.80
2011,04,22,03,37,1.80
2011,04,22,03,38,1.80
2011,04,22,03,39,1.70
2011,04,22,03,40,1.70
2011,04,22,03,41,1.70
2011,04,22,03,42,1.60
2011,04,22,03,43,1.60
2011,04,22,03,44,1.60
2011,04,22,03,45,1.60
2011,04,22,03,46,1.60
2011,04,22,03,47,1.60
2011,04,22,03,48,1.60
2011,04,22,03,49,1.60
2011,04,22,03,50,1.60
2011,04,22,03,51,1.50
2011,04,22,03,52,1.50
2011,04,22,03,53,1.50
2011,04,22,03,54,1.50
2011,04,22,03,55,1.50
2011,04,22,03,56,1.40
2011,04,22,03,57,1.40
2011,04,22,03,58,1.40
2011,04,22,03,59,1.40
2011,04,22,04,00,1.30
2011,04,22,04,01,1.30
2011,04,22,04,02,1.30
2011,04,22,04,03,1.30
2011,04,22,04,04,1.30
2011,04,22,04,05,1.30
2011,04,22,04,06,1.30
2011,04,22,04,07,1.30
2011,04,22,04,08,1.30
2011,04,22,04,09,1.30
2011,04,22,04,10,1.30
2011,04,22,04,11,1.30
2011,04,22,04,12,1.30
2011,04,22,04,13,1.30
2011,04,22,04,14,1.30
2011,04,22,04,15,1.30
2011,04,22,04,16,1.30
2011,04,22,04,17,1.30
2011,04,22,04,18,1.20
2011,04,22,04,19,1.20
2011,04,22,04,20,1.20
2011,04,22,04,21,1.20
2011,04,22,04,22,1.20
2011,04,22,04,23,1.20
2011,04,22,04,24,1.10
2011,04,22,04,25,1.10
2011,04,22,04,26,1.10
2011,04,22,04,27,1.10
2011,04,22,04,28,1.10
2011,04,22,04,29,1.10
2011,04,22,04,30,1.00
2011,04,22,04,31,1.00
2011,04,22,04,32,1.00
2011,04,22,04,33,1.00
2011,04,22,04,34,1.00
2011,04,22,04,35,1.00
2011,04,22,04,36,0.90
2011,04,22,04,37,0.90
2011,04,22,04,38,0.90
2011,04,22,04,39,0.90
2011,04,22,04,40,0.90
2011,04,22,04,41,0.90
2011,04,22,04,42,0.90
2011,04,22,04,43,0.90
2011,04,22,04,44,0.90
2011,04,22,04,45,0.90
2011,04,22,04,46,0.90
2011,04,22,04,47,0.90
2011,04,22,04,48,0.90
2011,04,22,04,49,0.90
2011,04,22,04,50,0.90
2011,04,22,04,51,0.90
2011,04,22,04,52,0.90
2011,04,22,04,53,0.90
2011,04,22,04,54,0.90
2011,04,22,04,55,0.90
2011,04,22,04,56,0.90
2011,04,22,04,57,0.90
2011,04,22,04,58,0.90
2011,04,22,04,59,1.00
2011,04,22,05,00,1.00
2011,04,22,05,01,1.10
2011,04,22,05,02,1.10
2011,04,22,05,03,1.10
2011,04,22,05,04,1.10
2011,04,22,05,05,1.10
2011,04,22,05,06,1.10
2011,04,22,05,07,1.10
2011,04,22,05,08,1.10
2011,04,22,05,09,1.10
2011,04,22,05,10,1.10
2011,04,22,05,11,1.10
2011,04,22,05,12,1.10
2011,04,22,05,13,1.10
2011,04,22,05,14,1.10
2011,04,22,05,15,1.10
2011,04,22,05,16,1.10
2011,04,22,05,17,1.10
2011,04,22,05,18,1.10
2011,04,22,05,19,1.10
2011,04,22,05,20,1.10
2011,04,22,05,21,1.20
2011,04,22,05,22,1.20
2011,04,22,05,23,1.20
2011,04,22,05,24,1.20
2011,04,22,05,25,1.20
2011,04,22,05,26,1.20
2011,04,22,05,27,1.20
2011,04,22,05,28,1.20
2011,04,22,05,29,1.20
2011,04,22,05,30,1.20
2011,04,22,05,31,1.20
2011,04,22,05,32,1.30
2011,04,22,05,33,1.30
2011,04,22,05,34,1.30
2011,04,22,05,35,1.30
2011,04,22,05,36,1.30
2011,04,22,05,37,1.30
2011,04,22,05,38,1.30
2011,04,22,05,39,1.30
2011,04,22,05,40,1.30
2011,04,22,05,41,1.30
2011,04,22,05,42,1.30
2011,04,22,05,43,1.40
2011,04,22,05,44,1.50
2011,04,22,05,45,1.60
2011,04,22,05,46,1.70
2011,04,22,05,47,1.70
2011,04,22,05,48,1.80
2011,04,22,05,49,1.80
2011,04,22,05,50,1.80
2011,04,22,05,51,1.90
2011,04,22,05,52,1.90
2011,04,22,05,53,1.90
2011,04,22,05,54,1.90
2011,04,22,05,55,1.90
2011,04,22,05,56,1.90
2011,04,22,05,57,1.90
2011,04,22,05,58,1.90
2011,04,22,05,59,1.90
2011,04,22,06,00,1.90
2011,04,22,06,01,1.90
2011,04,22,06,02,1.90
2011,04,22,06,03,1.90
2011,04,22,06,04,1.90
2011,04,22,06,05,1.90
2011,04,22,06,06,2.00
2011,04,22,06,07,1.90
2011,04,22,06,08,2.00
2011,04,22,06,09,2.00
2011,04,22,06,10,2.00
2011,04,22,06,11,2.00
2011,04,22,06,12,2.00
2011,04,22,06,13,2.10
2011,04,22,06,14,2.10
2011,04,22,06,15,2.10
2011,04,22,06,16,2.10
2011,04,22,06,17,2.10
2011,04,22,06,18,2.10
2011,04,22,06,19,2.10
2011,04,22,06,20,2.10
2011,04,22,06,21,2.20
2011,04,22,06,22,2.20
2011,04,22,06,23,2.20
2011,04,22,06,24,2.20
2011,04,22,06,25,2.20
2011,04,22,06,26,2.20
2011,04,22,06,27,2.20
2011,04,22,06,28,2.20
2011,04,22,06,29,2.20
2011,04,22,06,30,2.20
2011,04,22,06,31,2.20
2011,04,22,06,32,2.30
2011,04,22,06,33,2.30
2011,04,22,06,34,2.30
2011,04,22,06,35,2.30
2011,04,22,06,36,2.30
2011,04,22,06,37,2.30
2011,04,22,06,38,2.30
2011,04,22,06,39,2.30
2011,04,22,06,40,2.30
2011,04,22,06,41,2.30
2011,04,22,06,42,2.30
2011,04,22,06,43,2.30
2011,04,22,06,44,2.30
2011,04,22,06,45,2.30
2011,04,22,06,46,2.30
2011,04,22,06,47,2.30
2011,04,22,06,48,2.40
2011,04,22,06,49,2.40
2011,04,22,06,50,2.40
2011,04,22,06,51,2.40
2011,04,22,06,52,2.50
2011,04,22,06,53,2.50
2011,04,22,06,54,2.50
2011,04,22,06,55,2.50
2011,04,22,06,56,2.50
2011,04,22,06,57,2.50
2011,04,22,06,58,2.50
2011,04,22,06,59,2.60
2011,04,22,07,00,2.60
2011,04,22,07,01,2.60
2011,04,22,07,02,2.60
2011,04,22,07,03,2.60
2011,04,22,07,04,2.60
2011,04,22,07,05,2.60
2011,04,22,07,06,2.70
2011,04,22,07,07,2.70
2011,04,22,07,08,2.70
2011,04,22,07,09,2.70
2011,04,22,07,10,2.70
2011,04,22,07,11,2.70
2011,04,22,07,12,2.70
2011,04,22,07,13,2.80
2011,04,22,07,14,2.80
2011,04,22,07,15,2.80
2011,04,22,07,16,2.80
2011,04,22,07,17,2.80
2011,04,22,07,18,2.80
2011,04,22,07,19,2.90
2011,04,22,07,20,2.90
2011,04,22,07,21,2.90
2011,04,22,07,22,2.90
2011,04,22,07,23,3.00
2011,04,22,07,24,3.00
2011,04,22,07,25,3.00
2011,04,22,07,26,3.10
2011,04,22,07,27,3.10
2011,04,22,07,28,3.10
2011,04,22,07,29,3.10
2011,04,22,07,30,3.20
2011,04,22,07,31,3.20
2011,04,22,07,32,3.20
2011,04,22,07,33,3.20
2011,04,22,07,34,3.30
2011,04,22,07,35,3.30
2011,04,22,07,36,3.30
2011,04,22,07,37,3.30
2011,04,22,07,38,3.40
2011,04,22,07,39,3.40
2011,04,22,07,40,3.40
2011,04,22,07,41,3.40
2011,04,22,07,42,3.50
2011,04,22,07,43,3.50
2011,04,22,07,44,3.60
2011,04,22,07,45,3.60
2011,04,22,07,46,3.60
2011,04,22,07,47,3.70
2011,04,22,07,48,3.70
2011,04,22,07,49,3.70
2011,04,22,07,50,3.80
2011,04,22,07,51,3.80
2011,04,22,07,52,3.80
2011,04,22,07,53,3.90
2011,04,22,07,54,3.90
2011,04,22,07,55,4.00
2011,04,22,07,56,4.00
2011,04,22,07,57,4.10
2011,04,22,07,58,4.10
2011,04,22,07,59,4.20
2011,04,22,08,00,4.20
2011,04,22,08,01,4.30
2011,04,22,08,02,4.30
2011,04,22,08,03,4.40
2011,04,22,08,04,4.40
2011,04,22,08,05,4.50
2011,04,22,08,06,4.50
2011,04,22,08,07,4.60
2011,04,22,08,08,4.70
2011,04,22,08,09,4.80
2011,04,22,08,10,4.80
2011,04,22,08,11,4.80
2011,04,22,08,12,4.90
2011,04,22,08,13,5.00
2011,04,22,08,14,5.00
2011,04,22,08,15,5.10
2011,04,22,08,16,5.10
2011,04,22,08,17,5.20
2011,04,22,08,18,5.30
2011,04,22,08,19,5.30
2011,04,22,08,20,5.40
2011,04,22,08,21,5.40
2011,04,22,08,22,5.50
2011,04,22,08,23,5.50
2011,04,22,08,24,5.60
2011,04,22,08,25,5.60
2011,04,22,08,26,5.70
2011,04,22,08,27,5.70
2011,04,22,08,28,5.70
2011,04,22,08,29,5.70
2011,04,22,08,30,5.80
2011,04,22,08,31,5.80
2011,04,22,08,32,5.80
2011,04,22,08,33,5.80
2011,04,22,08,34,5.90
2011,04,22,08,35,5.90
2011,04,22,08,36,6.00
2011,04,22,08,37,6.00
2011,04,22,08,38,6.10
2011,04,22,08,39,6.20
2011,04,22,08,40,6.20
2011,04,22,08,41,6.30
2011,04,22,08,42,6.30
2011,04,22,08,43,6.40
2011,04,22,08,44,6.50
2011,04,22,08,45,6.60
2011,04,22,08,46,6.60
2011,04,22,08,47,6.70
2011,04,22,08,48,6.80
2011,04,22,08,49,6.80
2011,04,22,08,50,6.80
2011,04,22,08,51,6.90
2011,04,22,08,52,6.90
2011,04,22,08,53,7.00
2011,04,22,08,54,7.00
2011,04,22,08,55,7.10
2011,04,22,08,56,7.10
2011,04,22,08,57,7.20
2011,04,22,08,58,7.20
2011,04,22,08,59,7.20
2011,04,22,09,00,7.20
2011,04,22,09,01,7.30
2011,04,22,09,02,7.20
2011,04,22,09,03,7.20
2011,04,22,09,04,7.20
2011,04,22,09,05,7.10
2011,04,22,09,06,7.10
2011,04,22,09,07,7.00
2011,04,22,09,08,6.90
2011,04,22,09,09,6.90
2011,04,22,09,10,6.80
2011,04,22,09,11,6.70
2011,04,22,09,12,6.70
2011,04,22,09,13,6.70
2011,04,22,09,14,6.70
2011,04,22,09,15,6.70
2011,04,22,09,16,6.70
2011,04,22,09,17,6.80
2011,04,22,09,18,6.80
2011,04,22,09,19,6.90
2011,04,22,09,20,6.90
2011,04,22,09,21,7.00
2011,04,22,09,22,7.10
2011,04,22,09,23,7.20
2011,04,22,09,24,7.20
2011,04,22,09,25,7.20
2011,04,22,09,26,7.20
2011,04,22,09,27,7.10
2011,04,22,09,28,7.10
2011,04,22,09,29,7.00
2011,04,22,09,30,6.90
2011,04,22,09,31,6.90
2011,04,22,09,32,6.80
2011,04,22,09,33,6.80
2011,04,22,09,34,6.80
2011,04,22,09,35,6.80
2011,04,22,09,36,6.80
2011,04,22,09,37,6.70
2011,04,22,09,38,6.80
2011,04,22,09,39,6.80
2011,04,22,09,40,6.80
2011,04,22,09,41,6.70
2011,04,22,09,42,6.70
2011,04,22,09,43,6.80
2011,04,22,09,44,6.80
2011,04,22,09,45,6.90
2011,04,22,09,46,6.90
2011,04,22,09,47,7.00
2011,04,22,09,48,6.90
2011,04,22,09,49,7.00
2011,04,22,09,50,7.00
2011,04,22,09,51,7.00
2011,04,22,09,52,7.00
2011,04,22,09,53,6.90
2011,04,22,09,54,7.00
2011,04,22,09,55,7.00
2011,04,22,09,56,7.10
2011,04,22,09,57,7.10
2011,04,22,09,58,7.10
2011,04,22,09,59,7.10
2011,04,22,10,00,7.10
2011,04,22,10,01,7.10
2011,04,22,10,02,7.10
2011,04,22,10,03,7.20
2011,04,22,10,04,7.20
2011,04,22,10,05,7.30
2011,04,22,10,06,7.30
2011,04,22,10,07,7.30
2011,04,22,10,08,7.30
2011,04,22,10,09,7.20
2011,04,22,10,10,7.30
2011,04,22,10,11,7.40
2011,04,22,10,12,7.40
2011,04,22,10,13,7.50
2011,04,22,10,14,7.50
2011,04,22,10,15,7.50
2011,04,22,10,16,7.60
2011,04,22,10,17,7.60
2011,04,22,10,18,7.60
2011,04,22,10,19,7.60
2011,04,22,10,20,7.60
2011,04,22,10,21,7.60
2011,04,22,10,22,7.60
2011,04,22,10,23,7.60
2011,04,22,10,24,7.60
2011,04,22,10,25,7.60
2011,04,22,10,26,7.50
2011,04,22,10,27,7.40
2011,04,22,10,28,7.40
2011,04,22,10,29,7.40
2011,04,22,10,30,7.40
2011,04,22,10,31,7.50
2011,04,22,10,32,7.50
2011,04,22,10,33,7.50
2011,04,22,10,34,7.60
2011,04,22,10,35,7.70
2011,04,22,10,36,7.80
2011,04,22,10,37,7.80
2011,04,22,10,38,7.80
2011,04,22,10,39,7.80
2011,04,22,10,40,7.80
2011,04,22,10,41,7.80
2011,04,22,10,42,7.80
2011,04,22,10,43,7.80
2011,04,22,10,44,7.70
2011,04,22,10,45,7.70
2011,04,22,10,46,7.60
2011,04,22,10,47,7.60
2011,04,22,10,48,7.60
2011,04,22,10,49,7.50
2011,04,22,10,50,7.50
2011,04,22,10,51,7.60
2011,04,22,10,52,7.60
2011,04,22,10,53,7.70
2011,04,22,10,54,7.70
2011,04,22,10,55,7.80
2011,04,22,10,56,7.80
2011,04,22,10,57,7.80
2011,04,22,10,58,7.80
2011,04,22,10,59,7.90
2011,04,22,11,00,7.90
2011,04,22,11,01,8.00
2011,04,22,11,02,8.10
2011,04,22,11,03,8.10
2011,04,22,11,04,8.00
2011,04,22,11,05,7.90
2011,04,22,11,06,7.90
2011,04,22,11,07,7.80
2011,04,22,11,08,7.80
2011,04,22,11,09,7.80
2011,04,22,11,10,7.90
2011,04,22,11,11,7.80
2011,04,22,11,12,7.80
2011,04,22,11,13,7.90
2011,04,22,11,14,7.90
2011,04,22,11,15,8.00
2011,04,22,11,16,8.10
2011,04,22,11,17,8.10
2011,04,22,11,18,8.10
2011,04,22,11,19,8.10
2011,04,22,11,20,8.00
2011,04,22,11,21,8.00
2011,04,22,11,22,8.10
2011,04,22,11,23,8.10
2011,04,22,11,24,8.20
2011,04,22,11,25,8.40
2011,04,22,11,26,8.60
2011,04,22,11,27,8.70
2011,04,22,11,28,8.80
2011,04,22,11,29,8.70
2011,04,22,11,30,8.50
2011,04,22,11,31,8.30
2011,04,22,11,32,8.20
2011,04,22,11,33,8.10
2011,04,22,11,34,7.90
2011,04,22,11,35,7.80
2011,04,22,11,36,7.70
2011,04,22,11,37,7.70
2011,04,22,11,38,7.70
2011,04,22,11,39,7.90
2011,04,22,11,40,7.90
2011,04,22,11,41,7.90
2011,04,22,11,42,7.90
2011,04,22,11,43,7.90
2011,04,22,11,44,7.90
2011,04,22,11,45,8.00
2011,04,22,11,46,8.10
2011,04,22,11,47,8.20
2011,04,22,11,48,8.20
2011,04,22,11,49,8.20
2011,04,22,11,50,8.20
2011,04,22,11,51,8.20
2011,04,22,11,52,8.20
2011,04,22,11,53,8.30
2011,04,22,11,54,8.50
2011,04,22,11,55,8.50
2011,04,22,11,56,8.50
2011,04,22,11,57,8.50
2011,04,22,11,58,8.60
2011,04,22,11,59,8.60
2011,04,22,12,00,8.60
2011,04,22,12,01,8.60
2011,04,22,12,02,8.60
2011,04,22,12,03,8.60
2011,04,22,12,04,8.60
2011,04,22,12,05,8.60
2011,04,22,12,06,8.70
2011,04,22,12,07,8.70
2011,04,22,12,08,8.60
2011,04,22,12,09,8.60
2011,04,22,12,10,8.60
2011,04,22,12,11,8.50
2011,04,22,12,12,8.50
2011,04,22,12,13,8.50
2011,04,22,12,14,8.50
2011,04,22,12,15,8.40
2011,04,22,12,16,8.40
2011,04,22,12,17,8.40
2011,04,22,12,18,8.50
2011,04,22,12,19,8.50
2011,04,22,12,20,8.60
2011,04,22,12,21,8.70
2011,04,22,12,22,8.80
2011,04,22,12,23,8.70
2011,04,22,12,24,8.70
2011,04,22,12,25,8.70
2011,04,22,12,26,8.80
2011,04,22,12,27,8.90
2011,04,22,12,28,8.90
2011,04,22,12,29,9.00
2011,04,22,12,30,9.00
2011,04,22,12,31,9.00
2011,04,22,12,32,9.00
2011,04,22,12,33,9.00
2011,04,22,12,34,9.10
2011,04,22,12,35,9.20
2011,04,22,12,36,9.30
2011,04,22,12,37,9.30
2011,04,22,12,38,9.20
2011,04,22,12,39,9.20
2011,04,22,12,40,9.20
2011,04,22,12,41,9.20
2011,04,22,12,42,9.10
2011,04,22,12,43,9.10
2011,04,22,12,44,9.10
2011,04,22,12,45,9.00
2011,04,22,12,46,8.90
2011,04,22,12,47,9.00
2011,04,22,12,48,9.10
2011,04,22,12,49,9.10
2011,04,22,12,50,9.20
2011,04,22,12,51,9.20
2011,04,22,12,52,9.30
2011,04,22,12,53,9.30
2011,04,22,12,54,9.30
2011,04,22,12,55,9.30
2011,04,22,12,56,9.40
2011,04,22,12,57,9.40
2011,04,22,12,58,9.30
2011,04,22,12,59,9.30
2011,04,22,13,00,9.30
2011,04,22,13,01,9.20
2011,04,22,13,02,9.20
2011,04,22,13,03,9.20
2011,04,22,13,04,9.20
2011,04,22,13,05,9.30
2011,04,22,13,06,9.30
2011,04,22,13,07,9.30
2011,04,22,13,08,9.30
2011,04,22,13,09,9.30
2011,04,22,13,10,9.30
2011,04,22,13,11,9.30
2011,04,22,13,12,9.40
2011,04,22,13,13,9.50
2011,04,22,13,14,9.60
2011,04,22,13,15,9.80
2011,04,22,13,16,9.90
2011,04,22,13,17,10.10
2011,04,22,13,18,10.20
2011,04,22,13,19,10.40
2011,04,22,13,20,10.50
2011,04,22,13,21,10.70
2011,04,22,13,22,10.90
2011,04,22,13,23,11.00
2011,04,22,13,24,11.20
2011,04,22,13,25,11.40
2011,04,22,13,26,11.40
2011,04,22,13,27,11.30
2011,04,22,13,28,11.00
2011,04,22,13,29,10.80
2011,04,22,13,30,10.80
2011,04,22,13,31,10.80
2011,04,22,13,32,10.80
2011,04,22,13,33,10.90
2011,04,22,13,34,10.90
2011,04,22,13,35,10.90
2011,04,22,13,36,10.90
2011,04,22,13,37,10.90
2011,04,22,13,38,10.90
2011,04,22,13,39,10.90
2011,04,22,13,40,11.00
2011,04,22,13,41,10.90
2011,04,22,13,42,10.70
2011,04,22,13,43,10.80
2011,04,22,13,44,10.70
2011,04,22,13,45,10.70
2011,04,22,13,46,10.70
2011,04,22,13,47,10.70
2011,04,22,13,48,10.70
2011,04,22,13,49,10.70
2011,04,22,13,50,10.60
2011,04,22,13,51,10.60
2011,04,22,13,52,10.40
2011,04,22,13,53,10.20
2011,04,22,13,54,10.00
2011,04,22,13,55,9.70
2011,04,22,13,56,9.40
2011,04,22,13,57,9.30
2011,04,22,13,58,9.30
2011,04,22,13,59,9.20
2011,04,22,14,00,9.20
2011,04,22,14,01,9.20
2011,04,22,14,02,9.20
2011,04,22,14,03,9.20
2011,04,22,14,04,9.30
2011,04,22,14,05,9.30
2011,04,22,14,06,9.40
2011,04,22,14,07,9.30
2011,04,22,14,08,9.30
2011,04,22,14,09,9.40
2011,04,22,14,10,9.40
2011,04,22,14,11,9.30
2011,04,22,14,12,9.30
2011,04,22,14,13,9.40
2011,04,22,14,14,9.40
2011,04,22,14,15,9.40
2011,04,22,14,16,9.40
2011,04,22,14,17,9.40
2011,04,22,14,18,9.50
2011,04,22,14,19,9.60
2011,04,22,14,20,9.70
2011,04,22,14,21,9.70
2011,04,22,14,22,9.80
2011,04,22,14,23,9.90
2011,04,22,14,24,9.90
2011,04,22,14,25,9.90
2011,04,22,14,26,9.90
2011,04,22,14,27,10.00
2011,04,22,14,28,10.00
2011,04,22,14,29,10.10
2011,04,22,14,30,10.20
2011,04,22,14,31,10.30
2011,04,22,14,32,10.30
2011,04,22,14,33,10.40
2011,04,22,14,34,10.50
2011,04,22,14,35,10.60
2011,04,22,14,36,10.60
2011,04,22,14,37,10.30
2011,04,22,14,38,10.00
2011,04,22,14,39,9.80
2011,04,22,14,40,9.80
2011,04,22,14,41,9.70
2011,04,22,14,42,9.70
2011,04,22,14,43,9.70
2011,04,22,14,44,9.70
2011,04,22,14,45,9.80
2011,04,22,14,46,9.80
2011,04,22,14,47,9.80
2011,04,22,14,48,9.80
2011,04,22,14,49,10.00
2011,04,22,14,50,10.10
2011,04,22,14,51,10.20
2011,04,22,14,52,10.30
2011,04,22,14,53,10.40
2011,04,22,14,54,10.60
2011,04,22,14,55,10.70
2011,04,22,14,56,10.80
2011,04,22,14,57,10.90
2011,04,22,14,58,10.90
2011,04,22,14,59,10.90
2011,04,22,15,00,11.00
2011,04,22,15,01,11.10
2011,04,22,15,02,11.20
2011,04,22,15,03,11.30
2011,04,22,15,04,11.40
2011,04,22,15,05,11.10
2011,04,22,15,06,10.80
2011,04,22,15,07,10.50
2011,04,22,15,08,10.20
2011,04,22,15,09,10.10
2011,04,22,15,10,10.00
2011,04,22,15,11,10.10
2011,04,22,15,12,10.20
2011,04,22,15,13,10.20
2011,04,22,15,14,10.40
2011,04,22,15,15,10.60
2011,04,22,15,16,10.60
2011,04,22,15,17,10.60
2011,04,22,15,18,10.70
2011,04,22,15,19,10.70
2011,04,22,15,20,10.70
2011,04,22,15,21,10.80
2011,04,22,15,22,10.80
2011,04,22,15,23,10.80
2011,04,22,15,24,10.90
2011,04,22,15,25,11.00
2011,04,22,15,26,11.00
2011,04,22,15,27,11.00
2011,04,22,15,28,10.90
2011,04,22,15,29,10.90
2011,04,22,15,30,11.00
2011,04,22,15,31,11.00
2011,04,22,15,32,10.90
2011,04,22,15,33,10.90
2011,04,22,15,34,11.00
2011,04,22,15,35,11.10
2011,04,22,15,36,11.20
2011,04,22,15,37,11.20
2011,04,22,15,38,11.30
2011,04,22,15,39,11.30
2011,04,22,15,40,11.20
2011,04,22,15,41,11.20
2011,04,22,15,42,11.10
2011,04,22,15,43,11.00
2011,04,22,15,44,11.00
2011,04,22,15,45,10.90
2011,04,22,15,46,11.00
2011,04,22,15,47,11.10
2011,04,22,15,48,11.20
2011,04,22,15,49,11.30
2011,04,22,15,50,11.20
2011,04,22,15,51,11.00
2011,04,22,15,52,10.80
2011,04,22,15,53,10.80
2011,04,22,15,54,10.80
2011,04,22,15,55,10.80
2011,04,22,15,56,10.90
2011,04,22,15,57,11.00
2011,04,22,15,58,10.90
2011,04,22,15,59,11.00
2011,04,22,16,00,11.00
2011,04,22,16,01,11.10
2011,04,22,16,02,11.00
2011,04,22,16,03,10.80
2011,04,22,16,04,10.60
2011,04,22,16,05,10.50
2011,04,22,16,06,10.40
2011,04,22,16,07,10.40
2011,04,22,16,08,10.40
2011,04,22,16,09,10.30
2011,04,22,16,10,10.20
2011,04,22,16,11,10.10
2011,04,22,16,12,10.10
2011,04,22,16,13,10.00
2011,04,22,16,14,10.10
2011,04,22,16,15,10.10
2011,04,22,16,16,10.20
2011,04,22,16,17,10.40
2011,04,22,16,18,10.50
2011,04,22,16,19,10.40
2011,04,22,16,20,10.20
2011,04,22,16,21,10.10
2011,04,22,16,22,10.00
2011,04,22,16,23,10.00
2011,04,22,16,24,10.10
2011,04,22,16,25,10.10
2011,04,22,16,26,10.00
2011,04,22,16,27,9.90
2011,04,22,16,28,9.90
2011,04,22,16,29,9.80
2011,04,22,16,30,9.80
2011,04,22,16,31,9.80
2011,04,22,16,32,9.70
2011,04,22,16,33,9.70
2011,04,22,16,34,9.70
2011,04,22,16,35,9.80
2011,04,22,16,36,9.90
2011,04,22,16,37,10.00
2011,04,22,16,38,10.00
2011,04,22,16,39,10.00
2011,04,22,16,40,10.10
2011,04,22,16,41,10.10
2011,04,22,16,42,10.10
2011,04,22,16,43,10.10
2011,04,22,16,44,10.10
2011,04,22,16,45,10.10
2011,04,22,16,46,10.10
2011,04,22,16,47,10.10
2011,04,22,16,48,10.20
2011,04,22,16,49,10.20
2011,04,22,16,50,10.20
2011,04,22,16,51,10.20
2011,04,22,16,52,10.30
2011,04,22,16,53,10.30
2011,04,22,16,54,10.30
2011,04,22,16,55,10.20
2011,04,22,16,56,10.20
2011,04,22,16,57,10.10
2011,04,22,16,58,10.10
2011,04,22,16,59,10.10
2011,04,22,17,00,10.20
2011,04,22,17,01,10.20
2011,04,22,17,02,10.30
2011,04,22,17,03,10.30
2011,04,22,17,04,10.30
2011,04,22,17,05,10.30
2011,04,22,17,06,10.30
2011,04,22,17,07,10.30
2011,04,22,17,08,10.30
2011,04,22,17,09,10.30
2011,04,22,17,10,10.30
2011,04,22,17,11,10.40
2011,04,22,17,12,10.40
2011,04,22,17,13,10.40
2011,04,22,17,14,10.40
2011,04,22,17,15,10.40
2011,04,22,17,16,10.40
2011,04,22,17,17,10.40
2011,04,22,17,18,10.40
2011,04,22,17,19,10.40
2011,04,22,17,20,10.40
2011,04,22,17,21,10.40
2011,04,22,17,22,10.40
2011,04,22,17,23,10.40
2011,04,22,17,24,10.40
2011,04,22,17,25,10.50
2011,04,22,17,26,10.50
2011,04,22,17,27,10.50
2011,04,22,17,28,10.50
2011,04,22,17,29,10.50
2011,04,22,17,30,10.40
2011,04,22,17,31,10.30
2011,04,22,17,32,10.30
2011,04,22,17,33,10.30
2011,04,22,17,34,10.30
2011,04,22,17,35,10.30
2011,04,22,17,36,10.30
2011,04,22,17,37,10.30
2011,04,22,17,38,10.30
2011,04,22,17,39,10.30
2011,04,22,17,40,10.20
2011,04,22,17,41,10.20
2011,04,22,17,42,10.20
2011,04,22,17,43,10.20
2011,04,22,17,44,10.20
2011,04,22,17,45,10.20
2011,04,22,17,46,10.20
2011,04,22,17,47,10.30
2011,04,22,17,48,10.30
2011,04,22,17,49,10.30
2011,04,22,17,50,10.40
2011,04,22,17,51,10.40
2011,04,22,17,52,10.40
2011,04,22,17,53,10.40
2011,04,22,17,54,10.40
2011,04,22,17,55,10.40
2011,04,22,17,56,10.40